Regional Weather Roundup
Issued by NWS

Home | Current Version | Previous Version | Graphics & Text | Print | Product List | Glossary On
Versions: 1 2 3 4 5 6 7 8 9 10 11 12 13 14 15 16 17 18 19 20 21 22 23 24 25 26 27 28 29 30 31 32 33 34 35 36 37 38 39 40 41 42 43 44 45 46 47 48 49 50
680
ASUS43 KLMK 270510
RWRKY
KENTUCKY REGIONAL WEATHER ROUNDUP
NATIONAL WEATHER SERVICE LOUISVILLE KY
100 AM EDT TUE SEP 27 2016

NOTE "FAIR" INDICATES FEW OR NO CLOUDS BELOW 12,000 FEET
WITH NO SIGNIFICANT WEATHER AND/OR OBSTRUCTIONS TO VISIBILITY.

KYZ001>023-026-027-061>063-070>075-270600-
WESTERN AND SOUTH CENTRAL KENTUCKY

CITY           SKY/WX    TMP DP  RH WIND       PRES   REMARKS
PADUCAH        CLEAR     50  48  93 SW3       30.09F
HENDERSON      CLEAR     52  46  82 CALM      30.08F
OWENSBORO      NOT AVBL
HOPKINSVILLE   CLEAR     55  54  94 CALM      30.09F
BOWLING GREEN  CLEAR     54  52  93 CALM      30.10S FOG
GLASGOW        FOG      N/A N/A N/A CALM      30.09F VSB 1/2
$$

KYZ024-025-028>034-038-045-046-053-270600-
NORTH CENTRAL KENTUCKY

CITY           SKY/WX    TMP DP  RH WIND       PRES   REMARKS
LOUISVILLE/SDF CLEAR     59  52  77 S5        30.06F
LOUISVILLE/LOU CLEAR     56  52  86 CALM      30.07F
FORT KNOX      CLEAR     52  52  99 CALM      30.06F
$$

KYZ035>037-039>044-047>052-055>060-089>105-270600-
NORTHEAST KENTUCKY

CITY           SKY/WX    TMP DP  RH WIND       PRES   REMARKS
LEXINGTON      CLEAR     53  50  89 S6        30.08F
COVINGTON      CLEAR     54  51  90 SW6       30.05S
FRANKFORT      CLEAR     53  50  89 SW3       30.07S
$$

KYZ054-064>069-076>088-106>120-270600-
SOUTHEAST KENTUCKY

CITY           SKY/WX    TMP DP  RH WIND       PRES   REMARKS
JACKSON        PTCLDY    57  53  86 CALM      30.09S
LONDON         PTCLDY    59  53  80 N5        30.10S
SOMERSET       CLEAR     54  54 100 CALM      30.11S
MIDDLESBORO    CLOUDY    67  63  87 NW6       30.08R
MONTICELLO     CLOUDY    53  53 100 N12       30.12S
$$





USA.gov is the U.S. government's official web portal to all federal, state and local government web resources and services.